Regional Weather Roundup
Issued by NWS Sioux Falls, SD

Home | Current Version | Previous Version | Text Only | Print | Product List | Glossary On
Versions: 1 2 3 4 5 6 7 8 9 10 11 12 13 14 15 16 17 18 19 20 21 22 23 24 25 26 27 28 29 30 31 32 33 34 35 36 37 38 39 40 41 42 43 44 45 46 47 48 49 50
000
ASUS43 KFSD 211002
RWRFSD

WEATHER ROUNDUP FOR SE SOUTH DAKOTA/SW MINNESOTA/NW IOWA
NATIONAL WEATHER SERVICE SIOUX FALLS SD
400 AM CST SAT JAN 21 2017

NOTE: "FAIR" INDICATES FEW OR NO CLOUDS BELOW 12,000 FEET WITH NO
SIGNIFICANT WEATHER AND OR OBSTRUCTIONS TO VISIBILITY.


SDZ038>040-050-052>070-211100-
SOUTHEAST SOUTH DAKOTA

CITY           SKY/WX    TMP DP  RH WIND       PRES   REMARKS
BROOKINGS      CLOUDY    35  34  96 SE12      29.33F FOG     WCI  27
CHAMBERLAIN    CLOUDY    25  25  99 SW5       29.34F FOG     WCI  20
HURON          CLOUDY    28  28 100 NW7       29.32F WCI  21
MADISON        CLOUDY    34  34 100 SE8         N/A  WCI  27
MITCHELL       CLOUDY    37  36  96 W6        29.34S
SIOUX FALLS    FOG       36  36 100 SE7       29.35S VSB 1/2
WINNER         CLOUDY    27  23  85 CALM      29.34F
YANKTON        CLOUDY    37  36  93 CALM      29.34S VSB 1/2
$$

MNZ071-072-080-081-089-090-097-098-211100-
SOUTHWEST MINNESOTA

CITY           SKY/WX    TMP DP  RH WIND       PRES   REMARKS
FAIRMONT       LGT RAIN N/A N/A N/A E5        29.40F VSB 1
JACKSON        FOG       32  32 100 E7        29.38F VSB 1/2 WCI  26
MARSHALL       FOG       34  33  96 E7        29.39F VSB 1/2 WCI  28
MONTEVIDEO     FOG       34  34 100 SE9       29.42S VSB 3/4 WCI  26
PIPESTONE      RAIN      36  36 100 SE7       29.34F VSB 1/4
REDWOOD FALLS  FOG       34  33  96 E6        29.40F VSB 1/4 WCI  29
TRACY          FOG       35  35 100 SE5       29.38F VSB 1
WINDOM         FOG       36  34  93 E6        29.38F VSB 1/2
WORTHINGTON    FOG       33  33 100 E7        29.37F VSB 1/4 WCI  27
$$

IAZ001>003-012>014-020>022-031-032-NEZ013-014-SDZ071-211100-
NORTHWEST IOWA

CITY           SKY/WX    TMP DP  RH WIND       PRES   REMARKS
CHEROKEE       CLOUDY    35  35 100 CALM      29.37F FOG
DENISON        FOG       37  37 100 CALM      29.35F VSB 1/4
ESTHERVILLE    FOG       33  33 100 E5        29.38F VSB 3/4 WCI  29
LE MARS        CLOUDY    37  37 100 SE7       29.37F FOG
ORANGE CITY    FOG       36  36 100 CALM      29.36F VSB 1/2
SHELDON        FOG       34  34 100 SE5       29.35F VSB 1/2 WCI  30
SIOUX CITY     FOG       38  38 100 E6        29.36F VSB 1/4
SPENCER        FOG       35  35 100 E3        29.38F VSB 1/2
STORM LAKE     LGT RAIN  34  34 100 SE5       29.36F VSB 1/4 WCI  30
$$

ABBREVIATIONS USED IN REMARKS
   TC - TEMPERATURE IN CELSIUS
  WCI - WIND CHILL INDEX
   HX - HEAT INDEX
  VSB - VISIBILITY





USA.gov is the U.S. government's official web portal to all federal, state and local government web resources and services.